Regional Weather Roundup
Issued by NWS Midland/Odessa, TX

Skip options and go directly to product.
Home | Oldest Version | Previous Version | Current Version | All | Text Only | Save Text | Print | Product List | Glossary On

Skip product version selection by date and time.   
931
ASUS44 KMAF 280010
RWRMAF
MIDLAND AREA WEATHER ROUNDUP
NATIONAL WEATHER SERVICE MIDLAND TX
700 PM CDT THU AUG 27 2015

...IN SOUTHWEST TEXAS AND SOUTHEAST NEW MEXICO...

CITY           SKY/WX    TMP DP  RH WIND       PRES   REMARKS
ALPINE         FAIR      91  48  23 SE9       30.17F
ANDREWS        FAIR      91  46  20 SE10      30.04F
ARTESIA        PTSUNNY   91  55  29 N8        30.04S
BIG SPRING     FAIR      93  51  24 SE8       30.03F
CARLSBAD       MOSUNNY   95  44  17 E10       29.99F
DRYDEN           N/A     96  55  25 E12G20    29.98F
FORT STOCKTON  FAIR      95  47  19 SE10      30.01F
GUAD PASS      PTSUNNY   88  48  25 W22G33    30.19F
HOBBS          SUNNY     91  46  21 SE8       30.07S
MARFA          FAIR      88  48  25 SE3       30.16F
MIDLAND AIRPK  FAIR      95  46  18 S8        30.03F
MIDLAND INTL   FAIR      95  48  20 S6        30.03F
ODESSA         FAIR      95  46  18 SE9       30.04F
PECOS          FAIR      97  47  18 NE8       29.97F
PRESIDIO       NOT AVBL
SEMINOLE       FAIR      93  42  17 S8        30.05F
SNYDER         FAIR      95  51  22 S9        30.01F
WINK           FAIR      99  46  16 SE13G24   29.98F
$$
...OTHER STATIONS IN TEXAS...

CITY           SKY/WX    TMP DP  RH WIND       PRES   REMARKS
ABILENE        FAIR      93  60  33 SE16      29.99F
AMARILLO       FAIR      86  55  34 S15       30.02F
AUSTIN         PTSUNNY   93  56  28 E8        29.96F
BROWNSVILLE    FAIR      84  68  58 E13       29.97S
CORPUS CHRISTI PTSUNNY   88  63  43 SE13      29.97S
DALLAS FTW     PTSUNNY   91  62  37 E9        29.97F
DEL RIO        FAIR      96  60  30 SE9       29.93F
EL PASO        PTSUNNY   91  52  26 NW5       30.04F
HOUSTON INT    MOCLDY    88  63  43 NE3       29.97S
LUBBOCK        PTSUNNY   92  44  19 S16       30.03F
SAN ANGELO     PTSUNNY   97  54  23 E9        29.97F
SAN ANTONIO    PTSUNNY   94  62  34 SE9       29.97F
WACO           FAIR      93  56  28 E5        29.97F
WICHITA FALLS  NOT AVBL
$$
...OTHER LOCATIONS IN NEW MEXICO...

CITY           SKY/WX    TMP DP  RH WIND       PRES   REMARKS
ALAMAGORDO     PTSUNNY   90  50  25 N12       30.08R THUNDER
ALBUQUERQUE    PTSUNNY   82  53  36 SW16      30.17F
CANNON AFB     PTSUNNY   78  58  50 SW9       30.09F
CLOVIS         PTSUNNY   77  55  47 SW14      30.09F
HOLLOMAN AFB   MOSUNNY   87  53  31 NE23G35   30.05S THUNDER
ROSWELL        CLOUDY    88  56  33 N5        30.05S
RUIDOSO        CLOUDY    63  55  77 MISG      30.33F
SANTA FE       MOSUNNY   80  50  34 N9        30.21S
TRUTH OR CONSE PTSUNNY   87  47  24 CALM      30.12S
TUCUMCARI      PTSUNNY   88  54  31 SW25G35   30.00F
$$

USA.gov is the U.S. government's official web portal to all federal, state and local government web resources and services.